DW7902 Weather Reports


Display with metric or nautical units.
time (UTC)temp
F
wind
direction
speed
MPH
gust
MPH
rain 1hr
in
rain 24hr
in
rain mn
in
humidity
%
barometer
mb
20180821081736 64 149 5.0 8.0 0.00 0.00 0.00 68 1009.3
20180821081352 65 159 5.0 10.0 0.00 0.00 0.00 67 1009.5
20180821080851 65 159 5.0 10.0 0.00 0.00 0.00 67 1009.4
20180821080408 65 159 5.0 13.0 0.00 0.00 0.00 67 1009.4
20180821080128 65 172 5.0 13.0 0.00 0.00 0.00 67 1009.2
20180821075905 65 166 6.0 13.0 0.00 0.00 0.00 67 1009.3
20180821075405 65 147 5.0 12.0 0.00 0.00 0.00 67 1009.2
20180821074906 65 145 7.0 12.0 0.00 0.00 0.00 67 1009.3
20180821074627 65 145 5.0 11.0 0.00 0.00 0.00 67 1009.2
20180821074403 65 156 6.0 11.0 0.00 0.00 0.00 67 1009.4
20180821073902 65 174 5.0 9.0 0.00 0.00 0.00 67 1009.5
20180821073403 66 162 5.0 9.0 0.00 0.00 0.00 67 1009.6
20180821073152 65 162 3.0 9.0 0.00 0.00 0.00 66 1009.4
20180821072857 66 171 5.0 9.0 0.00 0.00 0.00 66 1009.6
20180821072357 66 177 4.0 9.0 0.00 0.00 0.00 66 1009.6
20180821071855 66 164 4.0 8.0 0.00 0.00 0.00 65 1009.6
20180821071620 66 184 5.0 8.0 0.00 0.00 0.00 65 1009.5
20180821071355 67 184 4.0 7.0 0.00 0.00 0.00 64 1009.6
20180821070852 67 141 4.0 7.0 0.00 0.00 0.00 64 1009.6
20180821070408 67 157 4.0 6.0 0.00 0.00 0.00 63 1009.6
20180821070010 67 180 3.0 6.0 0.00 0.00 0.00 63 1009.4
20180821065909 67 167 3.0 6.0 0.00 0.00 0.00 63 1009.5
20180821065407 68 166 3.0 6.0 0.00 0.00 0.00 62 1009.5
20180821064905 68 154 3.0 7.0 0.00 0.00 0.00 61 1009.4
20180821064506 68 155 4.0 7.0 0.00 0.00 0.00 60 1009.3
20180821064404 68 173 5.0 6.0 0.00 0.00 0.00 60 1009.4
20180821063902 69 159 3.0 7.0 0.00 0.00 0.00 59 1009.4
20180821063401 69 151 3.0 7.0 0.00 0.00 0.00 59 1009.2
20180821062956 69 149 4.0 7.0 0.00 0.00 0.00 58 1009.0
20180821062855 69 186 3.0 7.0 0.00 0.00 0.00 58 1009.2
20180821062354 69 147 4.0 8.0 0.00 0.00 0.00 58 1009.2
20180821061851 69 163 5.0 8.0 0.00 0.00 0.00 58 1009.1
20180821061456 68 153 5.0 7.0 0.00 0.00 0.00 58 1009.0
20180821061352 69 147 5.0 7.0 0.00 0.00 0.00 58 1009.1
20180821060909 69 145 2.0 5.0 0.00 0.00 0.00 58 1009.1
20180821060405 69 155 2.0 4.0 0.00 0.00 0.00 59 1009.2
20180821060004 69 154 2.0 3.0 0.00 0.00 0.00 59 1009.1
20180821055859 69 148 2.0 3.0 0.00 0.00 0.00 59 1009.2
20180821055354 69 154 1.0 4.0 0.00 0.00 0.00 59 1009.2
20180821054854 70 132 2.0 4.0 0.00 0.00 0.00 59 1009.2
20180821054501 69 145 0.0 4.0 0.00 0.00 0.00 58 1008.9
20180821054353 70 145 1.0 4.0 0.00 0.00 0.00 58 1009.1
20180821053851 70 146 2.0 5.0 0.00 0.00 0.00 58 1009.1
20180821053409 70 141 3.0 6.0 0.00 0.00 0.00 57 1009.0
20180821053012 70 151 3.0 6.0 0.00 0.00 0.00 57 1008.9
20180821052903 71 147 4.0 6.0 0.00 0.00 0.00 57 1009.1
20180821052404 70 172 3.0 5.0 0.00 0.00 0.00 57 1009.0
20180821051859 70 177 3.0 5.0 0.00 0.00 0.00 57 1009.0
20180821051502 70 171 2.0 4.0 0.00 0.00 0.00 57 1008.9
20180821051357 70 176 3.0 4.0 0.00 0.00 0.00 58 1009.0
20180821050859 70 170 2.0 4.0 0.00 0.00 0.00 58 1009.1
20180821050355 71 159 1.0 4.0 0.00 0.00 0.00 58 1009.0
20180821045958 71 159 1.0 4.0 0.00 0.00 0.00 57 1008.7
20180821045852 71 159 2.0 4.0 0.00 0.00 0.00 57 1008.9
20180821045351 71 146 3.0 7.0 0.00 0.00 0.00 56 1008.9
20180821044852 72 182 4.0 8.0 0.00 0.00 0.00 56 1008.9
20180821044513 72 154 2.0 8.0 0.00 0.00 0.00 55 1008.6
20180821044409 72 153 4.0 8.0 0.00 0.00 0.00 55 1008.8
20180821043908 73 186 4.0 9.0 0.00 0.00 0.00 54 1008.8
20180821043406 73 151 5.0 9.0 0.00 0.00 0.00 53 1008.8
20180821043000 73 194 5.0 8.0 0.00 0.00 0.00 52 1008.5
20180821042857 74 198 4.0 6.0 0.00 0.00 0.00 52 1008.8
20180821042353 74 169 3.0 7.0 0.00 0.00 0.00 51 1008.7
20180821041910 75 180 2.0 6.0 0.00 0.00 0.00 50 1008.6
20180821041406 75 184 3.0 7.0 0.00 0.00 0.00 49 1008.5
20180821041225 74 182 2.0 7.0 0.00 0.00 0.00 49 1008.3
20180821040900 75 168 4.0 10.0 0.00 0.00 0.00 49 1008.4
20180821040355 75 164 5.0 10.0 0.00 0.00 0.00 49 1008.3
20180821035910 76 168 3.0 8.0 0.00 0.00 0.00 49 1008.1
20180821035730 75 172 4.0 8.0 0.00 0.00 0.00 49 1008.0
20180821035407 76 170 4.0 8.0 0.00 0.00 0.00 49 1008.1
20180821034906 76 176 4.0 7.0 0.00 0.00 0.00 50 1008.0
20180821034406 76 172 4.0 7.0 0.00 0.00 0.00 50 1008.0
20180821034231 76 175 4.0 8.0 0.00 0.00 0.00 50 1007.8
20180821033904 76 175 4.0 8.0 0.00 0.00 0.00 50 1007.9
20180821033358 77 168 5.0 8.0 0.00 0.00 0.00 49 1007.9
20180821032854 77 160 4.0 6.0 0.00 0.00 0.00 47 1007.9
20180821032713 77 152 3.0 6.0 0.00 0.00 0.00 47 1007.7
20180821032353 78 155 4.0 7.0 0.00 0.00 0.00 46 1007.8
20180821031852 79 175 3.0 7.0 0.00 0.00 0.00 45 1007.9
20180821031352 79 153 3.0 7.0 0.00 0.00 0.00 44 1007.9
20180821031130 79 161 3.0 7.0 0.00 0.00 0.00 44 1007.7
20180821030851 80 188 4.0 7.0 0.00 0.00 0.00 43 1007.8
20180821030407 80 185 4.0 7.0 0.00 0.00 0.00 42 1007.8
20180821025903 81 193 4.0 8.0 0.00 0.00 0.00 41 1007.8
20180821025619 81 184 4.0 8.0 0.00 0.00 0.00 41 1007.7
20180821025400 81 198 5.0 8.0 0.00 0.00 0.00 41 1007.8
20180821024857 82 194 5.0 7.0 0.00 0.00 0.00 40 1007.7
20180821024352 83 197 3.0 7.0 0.00 0.00 0.00 40 1007.6
20180821024127 82 186 2.0 7.0 0.00 0.00 0.00 40 1007.4
20180821023910 83 188 4.0 7.0 0.00 0.00 0.00 39 1007.6
20180821023404 84 197 4.0 8.0 0.00 0.00 0.00 39 1007.5
20180821022855 84 200 5.0 8.0 0.00 0.00 0.00 38 1007.5
20180821022637 84 197 5.0 8.0 0.00 0.00 0.00 37 1007.2
20180821022354 85 212 5.0 7.0 0.00 0.00 0.00 36 1007.5
20180821021911 86 219 4.0 6.0 0.00 0.00 0.00 34 1007.4
20180821021408 86 216 4.0 6.0 0.00 0.00 0.00 34 1007.4
20180821021008 86 232 2.0 6.0 0.00 0.00 0.00 34 1007.1
20180821020906 87 230 3.0 6.0 0.00 0.00 0.00 35 1007.3
20180821020405 87 199 3.0 8.0 0.00 0.00 0.00 35 1007.2
20180821015901 88 221 5.0 8.0 0.00 0.00 0.00 35 1007.2
20180821015503 88 218 5.0 8.0 0.00 0.00 0.00 34 1007.0
20180821015359 88 185 4.0 8.0 0.00 0.00 0.00 34 1007.2
20180821014901 88 208 4.0 8.0 0.00 0.00 0.00 34 1007.2
20180821014356 89 172 6.0 10.0 0.00 0.00 0.00 32 1007.1
20180821013957 88 172 4.0 10.0 0.00 0.00 0.00 32 1007.0
20180821013855 89 182 5.0 10.0 0.00 0.00 0.00 32 1007.2
20180821013408 89 186 4.0 9.0 0.00 0.00 0.00 32 1007.2
20180821012901 90 205 7.0 12.0 0.00 0.00 0.00 31 1007.1
20180821012504 89 182 2.0 12.0 0.00 0.00 0.00 31 1006.9
20180821012400 90 160 4.0 12.0 0.00 0.00 0.00 30 1007.2
20180821011901 90 188 5.0 8.0 0.00 0.00 0.00 29 1007.2
20180821011358 90 168 5.0 9.0 0.00 0.00 0.00 26 1007.3
20180821010959 90 192 5.0 9.0 0.00 0.00 0.00 26 1007.1
20180821010857 91 206 5.0 9.0 0.00 0.00 0.00 27 1007.2
20180821010358 91 202 5.0 9.0 0.00 0.00 0.00 26 1007.2
20180821005856 91 202 7.0 10.0 0.00 0.00 0.00 26 1007.3
20180821005457 91 220 6.0 10.0 0.00 0.00 0.00 25 1007.0
20180821005353 92 207 6.0 10.0 0.00 0.00 0.00 25 1007.2
20180821004850 92 182 5.0 9.0 0.00 0.00 0.00 26 1007.3
20180821004410 92 221 4.0 8.0 0.00 0.00 0.00 26 1007.3
20180821004011 91 193 4.0 10.0 0.00 0.00 0.00 25 1007.0
20180821003908 92 200 5.0 10.0 0.00 0.00 0.00 25 1007.3
20180821003407 92 211 8.0 10.0 0.00 0.00 0.00 24 1007.3
20180821002902 92 251 5.0 8.0 0.00 0.00 0.00 26 1007.3
20180821002504 92 195 4.0 9.0 0.00 0.00 0.00 25 1007.1
20180821002401 92 219 5.0 9.0 0.00 0.00 0.00 23 1007.3
20180821001901 92 246 4.0 8.0 0.00 0.00 0.00 24 1007.4
20180821001403 92 231 6.0 9.0 0.00 0.00 0.00 23 1007.4
20180821001005 92 222 4.0 7.0 0.00 0.00 0.00 24 1007.2
20180821000900 92 239 5.0 7.0 0.00 0.00 0.00 23 1007.4
20180821000358 92 232 6.0 8.0 0.00 0.00 0.00 24 1007.5
20180820235911 93 203 5.0 8.0 0.00 0.00 0.00 23 1007.5
20180820235405 93 151 3.0 7.0 0.00 0.00 0.00 23 1007.4
20180820235228 92 247 2.0 7.0 0.00 0.00 0.00 24 1007.2
20180820234904 93 211 3.0 8.0 0.00 0.00 0.00 24 1007.4
20180820234405 92 201 5.0 8.0 0.00 0.00 0.00 24 1007.4
20180820233849 92 233 5.0 8.0 0.00 0.00 0.00 23 1007.4
20180820233731 91 182 5.0 8.0 0.00 0.00 0.00 25 1007.2
20180820233409 92 194 4.0 7.0 0.00 0.00 0.00 25 1007.4
20180820232904 91 213 5.0 8.0 0.00 0.00 0.00 23 1007.5
20180820232405 91 208 4.0 7.0 0.00 0.00 0.00 25 1007.5
20180820232227 91 212 4.0 7.0 0.00 0.00 0.00 25 1007.3
20180820231904 91 191 4.0 7.0 0.00 0.00 0.00 24 1007.5
20180820231404 92 218 5.0 8.0 0.00 0.00 0.00 24 1007.5
20180820230900 92 214 5.0 8.0 0.00 0.00 0.00 23 1007.6
20180820230626 91 199 6.0 8.0 0.00 0.00 0.00 24 1007.3
20180820230400 92 197 3.0 7.0 0.00 0.00 0.00 23 1007.6
20180820225859 91 164 3.0 7.0 0.00 0.00 0.00 22 1007.6
20180820225400 91 215 5.0 7.0 0.00 0.00 0.00 21 1007.6
20180820225127 90 233 3.0 7.0 0.00 0.00 0.00 23 1007.5
20180820224859 91 245 4.0 7.0 0.00 0.00 0.00 24 1007.7
20180820224358 91 243 3.0 7.0 0.00 0.00 0.00 22 1007.7
20180820223852 91 236 4.0 7.0 0.00 0.00 0.00 25 1007.8
20180820223631 90 199 4.0 6.0 0.00 0.00 0.00 23 1007.6
20180820223410 91 249 3.0 6.0 0.00 0.00 0.00 26 1007.8
20180820222905 91 231 3.0 7.0 0.00 0.00 0.00 25 1007.8
20180820222406 91 205 5.0 7.0 0.00 0.00 0.00 27 1007.9
20180820222130 90 233 3.0 7.0 0.00 0.00 0.00 26 1007.7
20180820221905 90 232 5.0 7.0 0.00 0.00 0.00 27 1007.9
20180820221402 90 238 4.0 7.0 0.00 0.00 0.00 28 1008.0
20180820220904 90 243 3.0 7.0 0.00 0.00 0.00 28 1008.1
20180820220509 90 191 1.0 8.0 0.00 0.00 0.00 27 1007.9
20180820220406 90 191 2.0 8.0 0.00 0.00 0.00 28 1008.1
20180820215900 90 237 5.0 8.0 0.00 0.00 0.00 30 1008.1
20180820215401 90 147 3.0 7.0 0.00 0.00 0.00 28 1008.2
20180820215003 90 208 4.0 7.0 0.00 0.00 0.00 27 1008.0
20180820214858 90 213 4.0 7.0 0.00 0.00 0.00 28 1008.2
20180820214358 90 227 4.0 7.0 0.00 0.00 0.00 28 1008.3
20180820213855 90 193 5.0 7.0 0.00 0.00 0.00 28 1008.5
20180820213504 89 199 3.0 6.0 0.00 0.00 0.00 29 1008.2
20180820213358 90 197 2.0 5.0 0.00 0.00 0.00 28 1008.4
20180820212855 90 211 2.0 6.0 0.00 0.00 0.00 28 1008.5
20180820212400 89 209 2.0 6.0 0.00 0.00 0.00 32 1008.6
20180820212002 88 152 1.0 6.0 0.00 0.00 0.00 30 1008.4
20180820211901 89 152 3.0 7.0 0.00 0.00 0.00 30 1008.6
20180820211405 88 171 4.0 7.0 0.00 0.00 0.00 31 1008.6
20180820210903 88 164 3.0 7.0 0.00 0.00 0.00 33 1008.7
20180820210506 87 152 4.0 7.0 0.00 0.00 0.00 34 1008.6
20180820210404 88 232 5.0 7.0 0.00 0.00 0.00 33 1008.7
20180820205902 87 178 3.0 7.0 0.00 0.00 0.00 34 1008.7
20180820205402 87 161 4.0 7.0 0.00 0.00 0.00 32 1008.8
20180820205004 86 170 3.0 9.0 0.00 0.00 0.00 34 1008.7
20180820204902 86 177 3.0 9.0 0.00 0.00 0.00 36 1008.8
20180820204401 86 235 5.0 9.0 0.00 0.00 0.00 34 1008.9
20180820203900 86 220 4.0 9.0 0.00 0.00 0.00 33 1009.0
20180820203505 85 222 2.0 7.0 0.00 0.00 0.00 36 1008.9
20180820203400 85 186 4.0 7.0 0.00 0.00 0.00 35 1009.1
20180820202856 86 247 4.0 7.0 0.00 0.00 0.00 37 1009.2
20180820202359 85 232 3.0 6.0 0.00 0.00 0.00 39 1009.2
20180820201959 84 242 1.0 7.0 0.00 0.00 0.00 39 1009.1
20180820201857 85 234 3.0 7.0 0.00 0.00 0.00 39 1009.3
20180820201359 85 182 5.0 7.0 0.00 0.00 0.00 41 1009.4
20180820200856 84 176 5.0 7.0 0.00 0.00 0.00 41 1009.4
20180820200459 84 238 3.0 8.0 0.00 0.00 0.00 43 1009.2
20180820200354 84 235 5.0 8.0 0.00 0.00 0.00 41 1009.4
20180820195850 84 177 4.0 8.0 0.00 0.00 0.00 42 1009.4
20180820195352 84 157 4.0 8.0 0.00 0.00 0.00 40 1009.4
20180820194954 83 158 3.0 8.0 0.00 0.00 0.00 42 1009.3
20180820194853 83 219 5.0 8.0 0.00 0.00 0.00 41 1009.5
20180820194350 83 240 3.0 6.0 0.00 0.00 0.00 43 1009.6
20180820193910 83 160 4.0 6.0 0.00 0.00 0.00 42 1009.6
20180820193405 83 207 3.0 6.0 0.00 0.00 0.00 41 1009.7
20180820193229 83 140 4.0 6.0 0.00 0.00 0.00 40 1009.5
20180820192903 83 226 2.0 5.0 0.00 0.00 0.00 42 1009.8
20180820192402 82 252 3.0 5.0 0.00 0.00 0.00 41 1009.8
20180820191902 82 270 3.0 6.0 0.00 0.00 0.00 42 1009.9
20180820191727 82 243 2.0 7.0 0.00 0.00 0.00 43 1009.8
20180820191402 82 195 3.0 7.0 0.00 0.00 0.00 42 1009.9
20180820190902 81 201 4.0 7.0 0.00 0.00 0.00 43 1009.9
20180820190358 81 237 4.0 7.0 0.00 0.00 0.00 43 1010.0
20180820190221 81 188 4.0 6.0 0.00 0.00 0.00 42 1009.8
20180820185858 81 199 3.0 7.0 0.00 0.00 0.00 46 1010.0
20180820185357 80 209 4.0 7.0 0.00 0.00 0.00 45 1010.1
20180820184852 80 253 4.0 7.0 0.00 0.00 0.00 46 1010.2
20180820184619 79 226 5.0 7.0 0.00 0.00 0.00 45 1010.0
20180820184351 80 259 4.0 7.0 0.00 0.00 0.00 47 1010.1
20180820183852 79 267 4.0 7.0 0.00 0.00 0.00 46 1010.1
20180820183409 79 222 6.0 7.0 0.00 0.00 0.00 46 1010.2
20180820183234 79 238 3.0 8.0 0.00 0.00 0.00 49 1010.0
20180820182908 79 211 3.0 8.0 0.00 0.00 0.00 47 1010.2
20180820182408 79 207 4.0 9.0 0.00 0.00 0.00 49 1010.2
20180820181907 79 162 4.0 9.0 0.00 0.00 0.00 49 1010.3
20180820181629 78 186 4.0 8.0 0.00 0.00 0.00 48 1010.1
20180820181405 78 202 6.0 7.0 0.00 0.00 0.00 49 1010.2
20180820180907 78 211 4.0 9.0 0.00 0.00 0.00 52 1010.2
20180820180408 78 213 5.0 9.0 0.00 0.00 0.00 53 1010.2
20180820180129 77 182 5.0 8.0 0.00 0.00 0.00 53 1010.0
20180820175905 77 184 6.0 8.0 0.00 0.00 0.00 52 1010.1
20180820175404 77 187 3.0 7.0 0.00 0.00 0.00 52 1010.2
20180820174905 76 282 3.0 6.0 0.00 0.00 0.00 55 1010.3
20180820174514 76 249 2.0 6.0 0.00 0.00 0.00 55 1010.0
20180820174404 76 274 4.0 6.0 0.00 0.00 0.00 55 1010.2
20180820173902 76 211 4.0 6.0 0.00 0.00 0.00 55 1010.2
20180820173401 76 262 4.0 0.0 0.00 0.00 0.00 56 1010.2
20180820172958 76 253 5.0 7.0 0.00 0.00 0.00 54 1010.1
20180820172852 76 233 4.0 8.0 0.00 0.00 0.00 55 1010.2
20180820172351 76 248 5.0 7.0 0.00 0.00 0.00 54 1010.3
20180820171850 76 201 3.0 7.0 0.00 0.00 0.00 53 1010.3
20180820171454 75 214 4.0 7.0 0.00 0.00 0.00 51 1010.1
20180820171350 76 221 4.0 7.0 0.00 0.00 0.00 52 1010.2
20180820170848 76 207 4.0 7.0 0.00 0.00 0.00 51 1010.2
20180820170409 76 223 3.0 8.0 0.00 0.00 0.00 52 1010.1
20180820170009 75 188 5.0 8.0 0.00 0.00 0.00 52 1010.0
20180820165903 75 193 3.0 8.0 0.00 0.00 0.00 53 1010.1
20180820165404 75 186 4.0 6.0 0.00 0.00 0.00 51 1010.2
20180820164903 74 155 2.0 6.0 0.00 0.00 0.00 54 1010.1
20180820164506 73 195 2.0 6.0 0.00 0.00 0.00 53 1009.9
20180820164405 73 197 2.0 6.0 0.00 0.00 0.00 55 1010.1
20180820163901 72 202 3.0 7.0 0.00 0.00 0.00 54 1010.2
20180820163400 72 234 3.0 7.0 0.00 0.00 0.00 53 1010.2
20180820162958 72 226 3.0 6.0 0.00 0.00 0.00 53 1010.0
20180820162856 72 245 3.0 6.0 0.00 0.00 0.00 52 1010.2
20180820162352 72 195 3.0 6.0 0.00 0.00 0.00 51 1010.1
20180820161852 72 203 3.0 6.0 0.00 0.00 0.00 51 1010.2
20180820161451 72 202 2.0 6.0 0.00 0.00 0.00 51 1010.0
20180820161349 72 222 2.0 6.0 0.00 0.00 0.00 52 1010.1
20180820160850 72 199 4.0 6.0 0.00 0.00 0.00 51 1010.1
20180820160409 72 230 3.0 4.0 0.00 0.00 0.00 50 1010.1
20180820155904 72 203 2.0 5.0 0.00 0.00 0.00 49 1010.1
20180820155822 72 202 2.0 5.0 0.00 0.00 0.00 49 1009.9
20180820155358 71 169 2.0 5.0 0.00 0.00 0.00 49 1010.1
20180820154853 71 165 3.0 6.0 0.00 0.00 0.00 48 1010.1
20180820154513 70 166 4.0 6.0 0.00 0.00 0.00 49 1010.0
20180820154408 70 154 3.0 5.0 0.00 0.00 0.00 50 1010.1
20180820153906 70 150 2.0 5.0 0.00 0.00 0.00 52 1010.1
20180820153405 69 148 2.0 5.0 0.00 0.00 0.00 54 1010.1
20180820153015 68 153 2.0 5.0 0.00 0.00 0.00 56 1009.9
20180820152902 68 169 2.0 6.0 0.00 0.00 0.00 56 1010.0
20180820152400 68 137 3.0 7.0 0.00 0.00 0.00 57 1010.0
20180820151858 67 164 4.0 5.0 0.00 0.00 0.00 59 1009.9
20180820151352 67 164 1.0 6.0 0.00 0.00 0.00 62 1010.0
20180820151212 66 166 1.0 6.0 0.00 0.00 0.00 63 1009.8
20180820150850 66 157 3.0 6.0 0.00 0.00 0.00 63 1009.9
20180820150410 66 151 2.0 5.0 0.00 0.00 0.00 62 1010.0
20180820145903 65 151 2.0 5.0 0.00 0.00 0.00 63 1009.9
20180820145719 65 150 3.0 5.0 0.00 0.00 0.00 63 1009.8
20180820145402 64 145 2.0 3.0 0.00 0.00 0.00 64 1009.9
20180820144901 64 127 0.0 1.0 0.00 0.00 0.00 65 1009.9
20180820144356 64 127 0.0 2.0 0.00 0.00 0.00 64 1010.0
20180820144215 63 127 0.0 2.0 0.00 0.00 0.00 64 1009.8
20180820143857 63 127 0.0 1.0 0.00 0.00 0.00 64 1009.9
20180820143354 63 127 0.0 1.0 0.00 0.00 0.00 64 1010.0
20180820142907 63 127 1.0 2.0 0.00 0.00 0.00 63 1009.9
20180820142626 62 127 0.0 2.0 0.00 0.00 0.00 63 1009.7
20180820142406 62 127 1.0 2.0 0.00 0.00 0.00 63 1009.9
20180820141845 62 127 1.0 3.0 0.00 0.00 0.00 64 1009.9
20180820141407 61 127 2.0 3.0 0.00 0.00 0.00 65 1009.8
20180820141126 61 127 1.0 2.0 0.00 0.00 0.00 66 1009.6
20180820140906 61 127 1.0 2.0 0.00 0.00 0.00 68 1009.8
20180820140359 61 127 0.0 2.0 0.00 0.00 0.00 66 1009.7
20180820135856 61 127 1.0 2.0 0.00 0.00 0.00 67 1009.7
20180820135615 60 127 0.0 2.0 0.00 0.00 0.00 68 1009.5
20180820135355 60 127 1.0 2.0 0.00 0.00 0.00 67 1009.6
20180820134855 60 130 1.0 2.0 0.00 0.00 0.00 68 1009.6
20180820134355 60 130 1.0 2.0 0.00 0.00 0.00 69 1009.5
20180820134120 59 130 1.0 2.0 0.00 0.00 0.00 70 1009.3
20180820133856 60 130 1.0 3.0 0.00 0.00 0.00 69 1009.5
20180820133356 60 47 2.0 3.0 0.00 0.00 0.00 70 1009.5
20180820132853 60 69 1.0 2.0 0.00 0.00 0.00 69 1009.4
20180820132629 60 69 0.0 2.0 0.00 0.00 0.00 69 1009.1
20180820132351 60 69 1.0 2.0 0.00 0.00 0.00 69 1009.3
20180820131852 60 69 1.0 2.0 0.00 0.00 0.00 69 1009.3
20180820131351 60 69 1.0 2.0 0.00 0.00 0.00 68 1009.2
20180820130956 60 69 1.0 2.0 0.00 0.00 0.00 68 1009.0
20180820130854 61 69 1.0 2.0 0.00 0.00 0.00 67 1009.2
20180820130350 61 69 2.0 2.0 0.00 0.00 0.00 67 1009.1
20180820125849 61 69 1.0 2.0 0.00 0.00 0.00 67 1009.1
20180820125454 61 69 0.0 2.0 0.00 0.00 0.00 66 1008.9
20180820125352 61 69 0.0 2.0 0.00 0.00 0.00 66 1009.1
20180820124851 62 69 0.0 2.0 0.00 0.00 0.00 65 1009.1
20180820124351 62 69 0.0 2.0 0.00 0.00 0.00 65 1009.0
20180820123949 61 69 1.0 3.0 0.00 0.00 0.00 65 1008.9
20180820123848 62 69 2.0 3.0 0.00 0.00 0.00 65 1009.1
20180820123406 62 69 2.0 5.0 0.00 0.00 0.00 65 1009.2
20180820122901 62 73 3.0 5.0 0.00 0.00 0.00 65 1009.1
20180820122507 62 117 1.0 3.0 0.00 0.00 0.00 64 1008.9
20180820122403 62 117 2.0 3.0 0.00 0.00 0.00 64 1009.0
20180820121904 63 118 2.0 3.0 0.00 0.00 0.00 64 1009.0
20180820121403 63 129 0.0 2.0 0.00 0.00 0.00 62 1008.9
20180820121007 63 129 0.0 2.0 0.00 0.00 0.00 62 1008.7
20180820120905 64 129 1.0 2.0 0.00 0.00 0.00 61 1008.9
20180820120405 64 130 1.0 2.0 0.00 0.00 0.00 60 1008.8
20180820115902 65 130 0.0 2.0 0.00 0.00 0.00 59 1008.7
20180820115404 65 130 1.0 3.0 0.00 0.00 0.00 58 1008.6
20180820115322 65 129 1.0 4.0 0.00 0.00 0.00 58 1008.5
20180820114906 65 130 1.0 4.0 0.00 0.00 0.00 58 1008.6
20180820114405 66 152 2.0 4.0 0.00 0.00 0.00 57 1008.6
20180820113906 66 157 2.0 3.0 0.00 0.00 0.00 56 1008.6
20180820113829 65 157 1.0 3.0 0.00 0.00 0.00 56 1008.4
20180820113406 66 157 2.0 4.0 0.00 0.00 0.00 55 1008.6
20180820112904 66 164 2.0 3.0 0.00 0.00 0.00 55 1008.6
20180820112403 66 159 2.0 4.0 0.00 0.00 0.00 54 1008.6
20180820112323 66 159 2.0 4.0 0.00 0.00 0.00 54 1008.4
20180820111845 66 174 2.0 4.0 0.00 0.00 0.00 53 1008.6
20180820111348 67 166 3.0 4.0 0.00 0.00 0.00 53 1008.6
20180820110849 67 179 2.0 6.0 0.00 0.00 0.00 52 1008.6
20180820110724 66 160 2.0 6.0 0.00 0.00 0.00 51 1008.4
20180820110408 67 160 2.0 5.0 0.00 0.00 0.00 50 1008.5
20180820105904 67 178 2.0 5.0 0.00 0.00 0.00 50 1008.6
20180820105403 67 154 3.0 5.0 0.00 0.00 0.00 49 1008.5
20180820105218 67 159 2.0 6.0 0.00 0.00 0.00 49 1008.3
20180820104901 68 164 2.0 6.0 0.00 0.00 0.00 48 1008.4
20180820104401 68 140 3.0 5.0 0.00 0.00 0.00 47 1008.3
20180820103859 68 153 2.0 5.0 0.00 0.00 0.00 47 1008.3
20180820103717 67 168 2.0 6.0 0.00 0.00 0.00 47 1008.1
20180820103352 68 145 3.0 6.0 0.00 0.00 0.00 46 1008.3
20180820102848 68 153 3.0 7.0 0.00 0.00 0.00 46 1008.3
20180820102407 68 165 3.0 7.0 0.00 0.00 0.00 45 1008.3
20180820102123 68 153 3.0 7.0 0.00 0.00 0.00 45 1008.1
20180820101904 68 153 4.0 6.0 0.00 0.00 0.00 45 1008.3
20180820101400 68 157 3.0 6.0 0.00 0.00 0.00 45 1008.2
20180820100859 68 153 4.0 6.0 0.00 0.00 0.00 45 1008.2
20180820100614 68 170 3.0 6.0 0.00 0.00 0.00 45 1008.0
20180820100357 68 145 4.0 6.0 0.00 0.00 0.00 45 1008.1
20180820095850 68 159 3.0 5.0 0.00 0.00 0.00 46 1008.2
20180820095348 68 153 3.0 4.0 0.00 0.00 0.00 47 1008.2
20180820095129 67 147 2.0 4.0 0.00 0.00 0.00 47 1008.1
20180820094901 68 147 3.0 4.0 0.00 0.00 0.00 47 1008.2
20180820094357 67 151 2.0 4.0 0.00 0.00 0.00 48 1008.3
20180820093854 67 149 1.0 3.0 0.00 0.00 0.00 48 1008.2
20180820093618 67 153 1.0 3.0 0.00 0.00 0.00 49 1008.0
20180820093353 67 164 1.0 3.0 0.00 0.00 0.00 50 1008.2
20180820092905 67 132 1.0 3.0 0.00 0.00 0.00 50 1008.2
20180820092404 68 132 2.0 3.0 0.00 0.00 0.00 50 1008.2
20180820092126 67 134 1.0 3.0 0.00 0.00 0.00 50 1008.0
20180820091905 68 141 2.0 3.0 0.00 0.00 0.00 49 1008.2
20180820091406 68 151 2.0 3.0 0.00 0.00 0.00 49 1008.2
20180820090845 69 151 2.0 3.0 0.00 0.00 0.00 49 1008.2
20180820090520 68 151 1.0 4.0 0.00 0.00 0.00 49 1008.0
20180820085850 69 151 3.0 5.0 0.00 0.00 0.00 48 1008.2
20180820085351 69 132 3.0 5.0 0.00 0.00 0.00 48 1008.2
20180820084959 69 143 3.0 5.0 0.00 0.00 0.00 48 1008.0
20180820084852 69 148 3.0 5.0 0.00 0.00 0.00 47 1008.2
20180820084352 70 144 3.0 5.0 0.00 0.00 0.00 47 1008.2
20180820083854 70 159 3.0 5.0 0.00 0.00 0.00 46 1008.2
20180820083457 70 151 3.0 6.0 0.00 0.00 0.00 45 1008.0
20180820083354 70 149 4.0 6.0 0.00 0.00 0.00 45 1008.2
20180820082850 71 154 4.0 6.0 0.00 0.00 0.00 44 1008.2
20180820082351 71 154 5.0 6.0 0.00 0.00 0.00 44 1008.2
20180820081956 71 152 3.0 6.0 0.00 0.00 0.00 43 1008.0
20180820081850 71 161 4.0 6.0 0.00 0.00 0.00 43 1008.2